User: anonymous   Login
Location: Unspecified
(0.0000°N, 0.0000°E)
Time: 23:02:30
(UTC+00:00)
Language:

SPRINT A - Orbit

View from above orbital plane
View from above orbital plane
View from above satellite
View from above satellite

Ground track
Ground track

The orbit is defined by the following mean orbital elements,

1 39253U          26145.51847918 +.00000000 +00000-0 +10124-3 0 00007
2 39253  29.7218 335.2589 0136795 193.1843 166.5131 13.55541699    09
Epoch (UTC): 25 May 2026 12:26:36
Eccentricity: 0.0136795
inclination: 29.7218°
perigee height: 950 km
apogee height: 1154 km
right ascension of ascending node: 335.2589°
argument of perigee: 193.1843°
revolutions per day: 13.55541699
mean anomaly at epoch: 166.5131°

The dashed part of the orbit path shows where the satellite is in the earth's shadow,  

DLR